Weather History for Fort Drum, NY

Change the Weather History Date:

Sunday, February 17, 2013

  Actual Average Record
Temperature  
Mean Temperature 6 °F -  
Max Temperature 12 °F 28 °F 51 °F (2006)
Min Temperature -1 °F 10 °F -9 °F (1997)
Degree Days  
Heating Degree Days 60    
Moisture  
Dew Point -3 °F    
Average Humidity 70    
Maximum Humidity 88    
Minimum Humidity 52    
Precipitation  
Precipitation 0.00 in - - ()
Sea Level Pressure  
Sea Level Pressure 29.97 in    
Wind  
Wind Speed 6 mph (NW)    
Max Wind Speed 10 mph    
Max Gust Speed 16 mph    
Visibility 10 miles    
Events      
Averages and records for this station are not official NWS values.
T = Trace of Precipitation, MM = Missing Value Source: NWS Daily Summary

Daily Weather History Graph

Daily Weather History Graph

Search for Another Location

Airport:

Trip Planner

Search our weather history database for the weather conditions in past years. The results will help you decide how hot, cold, wet, or windy it might be!

Date:

Astronomy

Feb. 17, 2013 Rise Set
Actual Time 6:58 AM EST 5:35 PM EST
Civil Twilight 6:29 AM EST 6:05 PM EST
Nautical Twilight 5:55 AM EST 6:38 PM EST
Astronomical Twilight 5:22 AM EST 7:12 PM EST
Moon 10:33 AM EST (2/17) 12:45 AM EST (2/17)
Length of Visible Light 11h 35m
Length of Day
10h 36m
Waxing Crescent, 49% of the Moon is Illuminated
Feb 17
Waxing Crescent
Feb 17
First Quarter
Feb 25
Full
Mar 4
Last Quarter
Mar 11
New

Hourly Weather History & Observations

Time (EST) Temp. Windchill Dew Point Humidity Pressure Visibility Wind Dir Wind Speed Gust Speed Precip Events Conditions
12:55 AM 4.8 °F -5.8 °F -2.2 °F 73% 29.96 in 10.0 mi NNE 5.8 mph - N/A   Clear
1:55 AM 3.9 °F -8.2 °F -2.0 °F 76% 29.95 in 10.0 mi NNE 6.9 mph - N/A   Clear
2:55 AM 3.7 °F -3.6 °F -0.8 °F 82% 29.94 in 10.0 mi North 3.5 mph - N/A   Clear
3:55 AM 1.0 °F -10.3 °F -2.9 °F 83% 29.94 in 10.0 mi NNE 5.8 mph - N/A   Clear
4:55 AM -0.8 °F - -3.8 °F 87% 29.95 in 10.0 mi Calm Calm - N/A   Clear
5:55 AM -1.8 °F -9.9 °F -5.4 °F 85% 29.95 in 10.0 mi NNW 3.5 mph - N/A   Clear
6:55 AM -1.8 °F -9.9 °F -4.9 °F 87% 29.95 in 10.0 mi NNW 3.5 mph - N/A   Clear
7:55 AM 0.1 °F -7.7 °F -2.9 °F 87% 29.96 in 10.0 mi NW 3.5 mph - N/A   Clear
8:55 AM 1.9 °F -11.8 °F -0.9 °F 88% 29.95 in 10.0 mi NNW 8.1 mph - N/A   Clear
9:55 AM 4.1 °F -6.7 °F 1.2 °F 88% 29.94 in 10.0 mi Variable 5.8 mph - N/A   Clear
10:55 AM 7.5 °F -6.9 °F -1.5 °F 67% 29.93 in 10.0 mi West 10.4 mph - N/A   Clear
11:55 AM 9.1 °F -4.0 °F -1.5 °F 62% 29.91 in 10.0 mi NNW 9.2 mph - N/A   Clear
12:55 PM 10.8 °F -2.0 °F -2.2 °F 56% 29.91 in 10.0 mi WNW 9.2 mph 16.1 mph N/A   Clear
1:55 PM 11.3 °F -1.3 °F -2.0 °F 55% 29.91 in 10.0 mi NW 9.2 mph - N/A   Clear
2:55 PM 12.6 °F -0.6 °F -2.0 °F 52% 29.92 in 10.0 mi WNW 10.4 mph - N/A   Clear
3:55 PM 12.4 °F 0.0 °F -2.4 °F 52% 29.93 in 10.0 mi WNW 9.2 mph - N/A   Clear
4:55 PM 12.0 °F 0.5 °F -2.6 °F 52% 29.95 in 10.0 mi WNW 8.1 mph - N/A   Clear
5:55 PM 10.0 °F 1.8 °F -3.1 °F 55% 29.97 in 10.0 mi Variable 4.6 mph - N/A   Clear
6:55 PM 7.9 °F -0.7 °F -3.1 °F 61% 30.00 in 10.0 mi West 4.6 mph - N/A   Clear
7:55 PM 6.8 °F -0.1 °F -3.1 °F 64% 30.02 in 10.0 mi WNW 3.5 mph - N/A   Clear
8:55 PM 6.4 °F -3.9 °F -3.5 °F 64% 30.05 in 10.0 mi WNW 5.8 mph - N/A   Clear
9:55 PM 5.2 °F -3.8 °F -4.4 °F 65% 30.07 in 10.0 mi WNW 4.6 mph - N/A   Clear
10:55 PM 4.1 °F -6.7 °F -4.5 °F 67% 30.09 in 10.0 mi WNW 5.8 mph - N/A   Clear
11:55 PM 3.6 °F -7.3 °F -5.4 °F 66% 30.10 in 10.0 mi WNW 5.8 mph - N/A   Clear